Date String (YYYY-MM-DD hh:mm:ss) UTC,Instrument flags,Ambient pressure (hPa),Sample flow (lpm),Bypass flow (lpm),Sample temperature (°C),Ambient temperature (°C),ASC tube jacket temperature (°C),LED temperature (°C),Box temperature (°C),Sample RH (%),Span deviation,Mass concentration (μg/m³),Mass concentration (μg/m³),Mass concentration (μg/m³)
DateTimeUTC,F1_M11,P_M11,Q1_M11,Q2_M11,T1_M11,T2_M11,T3_M11,T4_M11,T5_M11,U1_M11,ZSPAN_M11,X0_M11,X2_M11,X1_M11
2021-10-27 21:00:00,,0821.8,5.01,0.00,27.4,26.3,00.0,36.4,29.1,08.6,0000.0,0003.53,0000.80,0000.67
2021-10-27 21:01:00,,0821.8,5.00,0.00,27.4,26.3,00.0,36.4,29.1,08.5,0000.0,0003.58,0000.82,0000.67
2021-10-27 21:02:00,,0821.8,5.00,0.00,27.4,26.4,00.0,36.4,29.1,08.6,0000.0,0003.63,0000.84,0000.66
2021-10-27 21:03:00,,0821.9,5.00,0.00,27.4,26.3,00.0,36.4,29.1,08.6,0000.0,0003.72,0000.88,0000.66
2021-10-27 21:04:00,,0821.9,5.00,0.00,27.4,26.3,00.0,36.4,29.1,08.5,0000.0,0003.80,0000.92,0000.66
2021-10-27 21:05:00,,0822.1,5.01,0.00,27.4,26.3,00.0,36.4,29.2,08.5,0000.0,0003.86,0000.95,0000.65
2021-10-27 21:06:00,,0822.0,4.99,0.00,27.4,26.3,00.0,36.4,29.2,08.6,0000.0,0003.92,0000.97,0000.65
2021-10-27 21:07:00,,0822.0,5.00,0.00,27.4,26.4,00.0,36.4,29.2,08.6,0000.0,0003.91,0000.96,0000.65
2021-10-27 21:08:00,,0822.0,5.01,0.00,27.4,26.4,00.0,36.4,29.2,08.5,0000.0,0003.10,0000.96,0000.65
2021-10-27 21:09:00,,0822.1,4.99,0.00,27.4,26.4,00.0,36.5,29.2,08.5,0000.0,0002.46,0001.00,0000.64
2021-10-27 21:10:00,,0822.1,5.00,0.00,27.5,26.4,00.0,36.5,29.2,08.6,0000.0,0001.79,0001.00,0000.64
2021-10-27 21:11:00,,0822.1,5.01,0.00,27.5,26.3,00.0,36.5,29.2,08.6,0000.0,0001.87,0001.00,0000.63
2021-10-27 21:12:00,,0822.1,5.01,0.00,27.5,26.3,00.0,36.5,29.2,08.6,0000.0,0002.44,0000.99,0000.63
2021-10-27 21:13:00,,0822.0,5.00,0.00,27.5,26.4,00.0,36.5,29.3,08.6,0000.0,0003.50,0000.96,0000.63
2021-10-27 21:14:00,,0822.0,5.01,0.00,27.5,26.4,00.0,36.5,29.3,08.6,0000.0,0003.43,0000.92,0000.63
2021-10-27 21:15:00,,0822.0,5.01,0.00,27.5,26.4,00.0,36.5,29.3,08.6,0000.0,0003.43,0000.91,0000.62
2021-10-27 21:16:00,,0822.0,4.98,0.00,27.5,26.4,00.0,36.5,29.2,08.6,0000.0,0003.39,0000.89,0000.61
2021-10-27 21:17:00,,0822.0,5.01,0.00,27.5,26.4,00.0,36.5,29.2,08.7,0000.0,0003.36,0000.89,0000.61
2021-10-27 21:18:00,,0822.1,5.00,0.00,27.5,26.4,00.0,36.5,29.2,08.7,0000.0,0003.36,0000.89,0000.60
2021-10-27 21:19:00,,0822.1,5.00,0.00,27.5,26.4,00.0,36.5,29.2,08.7,0000.0,0004.17,0000.91,0000.60
2021-10-27 21:20:00,,0821.9,5.00,0.00,27.5,26.5,00.0,36.5,29.3,08.8,0000.0,0004.57,0000.84,0000.60
2021-10-27 21:21:00,,0821.9,5.00,0.00,27.5,26.5,00.0,36.5,29.3,08.7,0000.0,0004.57,0000.85,0000.60
2021-10-27 21:22:00,,0822.0,5.00,0.00,27.5,26.5,00.0,36.6,29.3,08.7,0000.0,0004.66,0000.91,0000.61
2021-10-27 21:23:00,,0822.1,5.00,0.00,27.5,26.5,00.0,36.6,29.3,08.7,0000.0,0004.06,0000.89,0000.61
2021-10-27 21:24:00,,0822.1,5.00,0.00,27.5,26.5,00.0,36.6,29.3,08.6,0000.0,0003.94,0000.92,0000.62
2021-10-27 21:25:00,,0822.1,5.00,0.00,27.6,26.5,00.0,36.6,29.3,08.5,0000.0,0003.94,0000.92,0000.62
2021-10-27 21:26:00,,0822.2,5.01,0.00,27.6,26.5,00.0,36.6,29.3,08.5,0000.0,0003.85,0000.88,0000.61
2021-10-27 21:27:00,,0822.2,4.99,0.00,27.6,26.5,00.0,36.6,29.3,08.6,0000.0,0003.85,0000.88,0000.61
2021-10-27 21:28:00,,0822.4,4.99,0.00,27.6,26.5,00.0,36.6,29.4,08.7,0000.0,0003.86,0000.87,0000.62
2021-10-27 21:29:00,,0822.2,4.99,0.00,27.6,26.5,00.0,36.6,29.4,08.7,0000.0,0003.91,0000.88,0000.62
2021-10-27 21:30:00,,0822.2,4.99,0.00,27.6,26.6,00.0,36.6,29.4,08.6,0000.0,0003.29,0000.84,0000.62
2021-10-27 21:31:00,,0822.2,5.00,0.00,27.6,26.6,00.0,36.6,29.3,08.6,0000.0,0002.35,0000.84,0000.62
2021-10-27 21:32:00,,0822.1,5.01,0.00,27.6,26.6,00.0,36.6,29.4,08.6,0000.0,0002.36,0000.85,0000.63
2021-10-27 21:33:00,,0822.2,5.01,0.00,27.6,26.6,00.0,36.6,29.4,08.7,0000.0,0002.28,0000.80,0000.63
2021-10-27 21:34:00,,0822.1,4.99,0.00,27.6,26.7,00.0,36.6,29.4,08.8,0000.0,0002.26,0000.80,0000.63
2021-10-27 21:35:00,,0822.1,5.00,0.00,27.6,26.7,00.0,36.7,29.4,08.7,0000.0,0001.31,0000.81,0000.64
2021-10-27 21:36:00,,0822.1,5.00,0.00,27.6,26.7,00.0,36.7,29.4,08.6,0000.0,0001.27,0000.82,0000.65
2021-10-27 21:37:00,,0822.1,5.01,0.00,27.6,26.7,00.0,36.7,29.4,08.7,0000.0,0001.40,0000.85,0000.67
2021-10-27 21:38:00,,0822.3,5.01,0.00,27.6,26.7,00.0,36.7,29.4,08.7,0000.0,0001.54,0000.88,0000.68
2021-10-27 21:39:00,,0822.3,4.99,0.00,27.6,26.7,00.0,36.7,29.4,08.7,0000.0,0001.52,0000.89,0000.69
2021-10-27 21:40:00,,0822.1,5.00,0.00,27.6,26.7,00.0,36.7,29.4,08.8,0000.0,0001.52,0000.89,0000.68
2021-10-27 21:41:00,,0822.2,5.01,0.00,27.6,26.7,00.0,36.7,29.4,08.7,0000.0,0001.57,0000.90,0000.68
2021-10-27 21:42:00,,0822.2,5.00,0.00,27.6,26.6,00.0,36.7,29.4,08.7,0000.0,0001.64,0000.94,0000.69
2021-10-27 21:43:00,,0822.2,5.00,0.00,27.6,26.6,00.0,36.7,29.3,08.7,0000.0,0001.63,0000.93,0000.70
2021-10-27 21:44:00,,0822.1,5.00,0.00,27.6,26.6,00.0,36.7,29.4,08.7,0000.0,0002.87,0000.95,0000.69
2021-10-27 21:45:00,,0822.1,4.99,0.00,27.7,26.7,00.0,36.7,29.4,08.8,0000.0,0002.99,0001.00,0000.70
2021-10-27 21:46:00,,0822.2,4.99,0.00,27.7,26.7,00.0,36.7,29.4,08.8,0000.0,0003.10,0001.04,0000.69
2021-10-27 21:47:00,,0822.2,5.00,0.00,27.6,26.7,00.0,36.7,29.4,08.7,0000.0,0003.25,0001.07,0000.69
2021-10-27 21:48:00,,0822.1,5.00,0.00,27.6,26.7,00.0,36.7,29.4,08.7,0000.0,0003.24,0001.07,0000.69
2021-10-27 21:49:00,,0822.1,5.00,0.00,27.6,26.7,00.0,36.7,29.4,08.8,0000.0,0003.10,0001.05,0000.69
2021-10-27 21:50:00,,0822.1,5.01,0.00,27.6,26.7,00.0,36.7,29.4,08.8,0000.0,0003.21,0001.08,0000.69
2021-10-27 21:51:00,,0822.1,5.00,0.00,27.6,26.7,00.0,36.7,29.4,08.9,0000.0,0003.34,0001.14,0000.70
2021-10-27 21:52:00,,0822.2,5.00,0.00,27.6,26.7,00.0,36.7,29.4,08.9,0000.0,0003.89,0001.16,0000.70
2021-10-27 21:53:00,,0822.1,5.01,0.00,27.6,26.7,00.0,36.7,29.4,08.9,0000.0,0004.98,0001.15,0000.70
2021-10-27 21:54:00,,0822.2,4.99,0.00,27.7,26.7,00.0,36.7,29.4,08.8,0000.0,0005.16,0001.15,0000.69
2021-10-27 21:55:00,,0822.3,5.00,0.00,27.7,26.7,00.0,36.7,29.4,08.8,0000.0,0004.44,0001.15,0000.69
2021-10-27 21:56:00,,0822.3,5.00,0.00,27.7,26.6,00.0,36.7,29.4,08.8,0000.0,0003.98,0001.11,0000.68
2021-10-27 21:57:00,,0822.3,5.00,0.00,27.6,26.6,00.0,36.7,29.4,08.8,0000.0,0003.89,0001.09,0000.69
2021-10-27 21:58:00,,0822.3,5.01,0.00,27.7,26.6,00.0,36.7,29.4,08.8,0000.0,0005.01,0001.04,0000.69
2021-10-27 21:59:00,,0822.3,4.99,0.00,27.7,26.6,00.0,36.7,29.4,08.9,0000.0,0005.06,0001.03,0000.68
